Temperature
25 23 23 24 24 25 25 24 24 24 24 23 22 22 22 22 21 21 21 21 21 21 21 21 20 20 20 19 19 19 18 18 18 18 18 18 18 17 18 18 17 17 17 17
23 24 25 25 25 25 24 24 24 24 24 23 22 22 22 21 21 22 21 21 21 21 21 21 20 20 20 19 19 19 18 18 18 18 18 18 18 18 18 18 18 17 17 17
24 25 25 26 25 25 24 24 24 24 23 23 23 22 22 22 22 22 22 22 22 22 22 21 21 20 20 20 19 19 19 18 18 18 18 18 18 18 18 18 18 18 17 17
24 25 25 25 25 25 24 25 24 24 22 21 23 22 22 21 21 21 22 22 22 22 22 22 21 21 20 20 20 19 19 19 18 18 18 18 18 18 18 18 18 18 18 18
24 25 25 25 25 25 24 24 24 23 22 21 21 21 21 21 21 21 21 22 22 22 22 22 22 22 21 21 20 20 19 19 19 18 18 18 18 18 18 18 18 18 18 18
24 25 25 25 25 25 24 23 22 20 20 21 21 21 21 20 21 22 22 22 23 23 23 23 22 22 21 21 20 20 19 19 19 19 18 18 18 18 18 18 18 18 18 18
24 25 25 25 24 24 23 21 21 21 20 21 20 21 21 22 22 22 22 23 23 23 23 22 22 22 22 21 21 20 20 19 19 19 19 19 18 18 18 18 18 18 18 18
23 23 24 24 24 23 22 22 21 22 21 20 20 20 21 22 23 23 23 23 23 23 23 23 23 22 22 22 21 21 20 20 19 19 19 19 19 18 18 18 18 18 18 18
21 22 24 24 24 23 22 21 21 19 20 20 20 20 21 22 22 21 22 22 22 22 23 23 23 22 22 22 22 21 21 20 20 19 19 19 19 19 19 18 18 18 18 18
21 22 23 23 24 23 22 20 18 19 20 20 21 21 21 22 21 21 20 21 22 22 22 23 23 22 22 22 22 22 21 21 20 20 19 19 19 19 19 19 18 18 18 18
21 22 22 23 23 22 21 20 18 17 19 19 20 21 21 21 21 20 20 21 22 23 23 23 23 23 22 22 22 22 22 21 21 20 20 20 19 19 19 19 19 19 18 18
19 18 20 21 22 22 22 20 18 20 19 18 19 20 22 20 20 20 21 22 22 22 23 23 23 22 22 22 22 22 22 21 21 21 20 20 20 19 19 19 19 19 19 18
19 18 20 21 21 21 21 20 19 18 17 16 19 21 21 20 20 20 21 21 22 22 22 23 23 22 22 22 22 22 22 22 21 21 20 20 20 19 19 19 19 19 18 18
19 17 19 21 20 20 21 21 19 18 18 18 18 20 20 20 19 19 20 21 21 22 22 22 22 22 22 22 22 22 22 22 21 21 20 20 20 20 19 19 19 19 18 18
18 18 19 19 20 21 22 21 20 20 19 19 20 19 20 19 19 20 20 20 20 21 21 22 22 22 22 22 22 22 22 21 21 20 20 20 20 20 19 19 19 18 18 18
16 18 19 20 20 21 21 21 21 21 20 20 20 20 19 19 19 19 20 20 20 20 21 21 21 21 21 21 21 21 21 21 20 20 20 20 19 19 19 19 19 18 18 18
15 17 18 18 19 21 20 20 20 20 20 20 20 20 18 18 18 19 19 20 20 20 20 21 21 21 21 21 21 21 20 20 20 20 20 19 19 19 19 18 18 18 18 18
15 15 14 16 19 20 20 20 20 20 19 19 19 18 18 18 19 19 20 20 20 20 20 20 20 20 20 20 20 20 20 19 20 19 19 19 19 18 18 18 18 18 18 17
14 15 14 15 17 19 20 20 20 20 19 18 18 18 17 18 18 18 19 19 20 20 20 20 20 20 20 19 19 19 19 19 19 19 19 19 18 18 18 18 18 17 17 17
14 14 15 15 18 18 19 20 20 20 19 18 17 17 17 17 17 17 19 19 19 19 19 19 19 19 19 19 19 19 19 19 18 18 18 18 18 18 17 17 17 17 17 17
15 14 15 15 17 17 18 18 19 19 19 18 18 17 17 16 17 18 18 18 19 19 19 19 19 19 19 19 19 19 18 18 18 18 18 17 17 17 17 17 17 16 16 16
14 14 14 14 16 17 17 17 18 17 17 17 17 17 17 17 17 17 17 17 18 18 18 18 18 18 18 18 18 18 18 18 18 17 17 17 17 16 16 16 16 16 16 16
13 14 13 14 15 15 15 16 17 17 17 17 17 17 17 16 16 16 16 16 17 17 17 17 18 18 17 17 17 18 18 17 17 17 16 16 16 16 16 16 16 15 15 15
13 12 13 13 14 14 15 16 17 17 17 17 17 17 17 16 16 16 16 16 16 16 16 17 17 17 17 17 17 17 17 16 16 16 16 16 16 16 16 15 15 15 15 15
13 13 13 13 14 14 15 15 16 16 17 16 16 16 16 16 15 15 15 15 15 16 16 16 16 16 16 16 16 16 16 16 16 16 15 15 15 15 15 15 15 15 15 14
12 12 13 13 14 13 14 15 16 16 16 16 16 15 15 16 15 15 15 15 15 15 15 15 16 16 15 15 15 15 15 15 15 15 15 15 15 14 14 14 14 14 14 14
Wind_Speed
3 4 3 6 7 5 5 4 2 3 2 4 5 5 7 9 9 9 8 8 9 9 7 5 5 6 6 6 5 5 5 5 5 3 3 2 2 1 1 2 3 4 5 6
4 3 7 5 4 3 3 2 1 1 1 3 2 4 4 10 12 11 10 10 10 8 5 5 6 6 7 7 6 6 6 6 5 4 3 2 2 2 2 1 2 3 4 5
8 6 4 4 2 2 1 4 4 3 2 3 2 4 2 4 6 6 7 8 9 11 10 9 8 8 7 8 8 7 6 5 5 5 4 3 3 2 1 1 1 2 4 4
5 5 4 4 3 4 3 4 4 4 4 1 1 2 5 4 5 8 9 9 10 10 10 9 9 9 9 9 8 7 6 6 5 5 5 5 4 3 3 2 2 2 3 4
6 4 5 4 5 5 4 3 5 4 4 2 2 2 7 1 6 10 12 12 11 11 12 12 12 11 9 9 8 7 6 5 5 6 6 6 4 3 2 2 2 1 1 2
4 2 4 5 3 5 7 7 7 6 5 1 3 3 6 5 8 7 10 12 11 11 11 11 10 8 7 7 7 7 6 5 5 6 6 6 6 4 3 3 3 2 1 1
2 2 1 3 4 3 6 7 4 4 3 4 2 3 8 8 7 7 8 10 11 11 11 11 10 10 9 9 9 7 7 6 5 6 6 6 6 6 6 5 4 3 2 2
4 4 4 4 6 7 5 9 8 5 5 4 1 5 8 6 5 4 5 6 8 9 10 12 12 12 11 11 10 9 8 7 6 6 6 6 6 5 4 5 4 5 4 4
6 6 4 3 3 9 7 4 7 7 3 1 5 7 8 2 1 1 1 3 6 8 10 11 11 11 11 11 11 10 10 8 7 7 6 5 5 5 5 4 4 4 3 4
8 4 4 2 5 4 6 9 6 6 6 3 5 5 5 5 4 3 3 4 5 6 8 9 10 11 11 11 10 9 9 9 8 8 7 6 6 6 5 4 4 4 4 3
5 5 2 2 4 5 4 5 5 6 6 7 4 7 6 8 7 6 6 6 7 7 8 9 9 10 10 9 9 9 9 8 7 7 7 6 5 5 5 5 5 5 4 4
4 6 2 5 3 3 5 7 8 6 4 5 5 7 6 6 5 5 5 3 4 6 6 7 8 9 9 10 10 10 10 9 9 8 7 6 5 5 5 5 5 4 4 4
4 6 3 4 4 2 2 3 5 6 6 6 6 7 4 2 2 2 3 3 3 5 5 5 6 8 10 10 10 10 10 9 8 7 7 6 6 6 6 5 5 4 5 4
5 5 6 9 8 4 2 3 5 6 5 6 8 8 6 5 4 2 2 3 3 3 4 5 6 7 8 9 9 8 8 7 7 7 7 7 7 7 6 5 4 5 4 4
5 4 3 4 4 4 4 5 7 6 8 9 9 8 9 8 6 5 3 3 3 3 3 4 6 6 6 7 7 7 7 7 7 7 7 7 7 6 5 5 5 5 4 5
4 4 2 1 1 2 3 4 7 6 5 5 4 6 6 4 2 2 2 3 4 4 4 5 5 5 6 7 7 6 6 6 6 7 7 6 5 5 5 5 5 4 4 4
2 4 3 2 2 2 3 5 5 4 4 6 7 7 2 1 3 4 4 4 5 4 3 4 5 5 5 5 5 6 6 5 6 6 5 5 5 5 5 5 4 5 5 4
5 4 3 2 2 4 7 3 3 4 3 3 3 4 4 4 2 0 1 4 5 4 4 3 3 3 3 2 3 4 4 4 5 5 4 4 4 5 4 4 5 5 4 4
5 6 4 3 3 4 5 2 3 4 3 3 4 3 2 4 3 3 2 2 3 3 3 3 3 4 4 3 3 5 4 4 3 3 3 3 4 4 4 5 5 4 4 4
5 5 5 4 4 6 6 3 2 3 3 3 4 4 4 4 2 3 1 2 3 4 4 4 4 5 4 3 4 6 4 4 3 2 2 2 3 4 4 4 4 3 3 4
4 4 3 3 3 6 5 5 1 4 6 3 3 4 5 4 4 3 3 3 3 4 4 5 5 5 3 3 5 5 4 2 1 1 1 1 1 2 2 2 2 2 2 2
3 3 3 3 3 5 4 2 2 4 2 0 2 3 5 6 6 5 5 4 4 5 5 5 5 4 3 3 5 5 2 1 2 2 1 1 1 1 1 2 1 1 1 1
2 4 4 5 5 4 3 3 3 1 1 0 1 3 7 8 7 6 5 4 4 4 4 3 4 4 4 3 4 3 0 1 3 3 1 1 1 1 1 2 1 0 1 1
1 1 2 0 3 3 4 2 3 2 2 2 4 5 6 7 7 6 5 5 4 4 3 3 4 4 3 3 2 1 1 2 3 2 1 1 1 0 0 1 1 1 2 2
3 1 2 1 3 3 4 4 3 5 6 6 6 5 6 8 7 6 5 4 3 3 3 3 4 3 3 3 3 2 2 2 2 1 1 1 0 1 1 1 1 2 2 3
3 4 4 5 5 3 2 2 2 4 4 6 7 6 5 6 7 6 5 4 3 3 3 3 4 4 3 3 3 3 2 2 2 1 1 0 0 0 0 1 2 2 2 3
Wind_Direction
78 88 180 207 194 189 181 168 209 243 210 159 207 221 196 186 191 198 201 200 203 211 207 182 171 165 157 157 161 164 159 158 145 134 143 147 161 162 157 182 179 173 170 162
60 233 218 181 170 157 146 146 201 312 69 152 205 257 216 196 202 203 203 204 205 204 187 181 170 165 166 170 171 169 170 168 166 164 155 151 143 151 160 163 157 172 173 171
185 222 177 144 140 122 213 189 200 183 73 54 94 327 244 226 210 212 214 206 203 200 194 188 183 181 176 179 181 183 179 174 172 159 130 107 87 76 94 134 175 180 177 175
213 227 166 158 192 157 252 227 170 142 119 294 135 259 275 229 221 220 219 211 208 204 194 188 186 185 188 190 182 177 175 172 169 156 153 154 161 175 199 191 191 186 174 174
224 192 170 188 204 159 192 106 100 111 122 63 8 157 285 236 233 234 224 218 211 201 192 191 192 191 190 184 177 174 168 174 173 167 168 165 169 181 171 154 167 186 180 184
225 216 183 192 167 145 133 77 58 52 73 2 253 176 277 237 225 234 221 218 211 199 193 193 189 179 178 176 173 171 171 183 177 172 172 175 177 175 166 174 184 198 201 201
312 289 243 142 108 86 106 99 48 4 14 254 257 202 252 252 238 229 221 214 204 195 189 186 181 181 182 180 179 176 176 188 182 179 183 187 187 182 186 190 195 196 200 212
171 257 231 184 167 169 166 143 157 188 214 268 290 234 256 272 265 247 223 201 188 188 187 187 187 186 186 185 183 180 183 190 187 188 194 193 191 192 200 199 196 202 210 218
171 236 277 220 166 139 136 168 157 135 139 198 275 282 301 296 308 268 168 154 179 188 183 184 183 183 184 185 186 186 186 188 190 195 193 195 197 198 203 204 206 210 213 216
153 202 274 274 87 59 139 144 108 126 148 221 279 270 254 265 253 228 187 180 190 185 180 180 183 185 186 187 186 186 187 189 191 193 200 204 202 202 202 198 207 210 213 215
135 156 290 60 160 178 116 117 119 124 150 162 229 264 231 224 227 216 211 192 189 186 185 184 187 187 182 179 180 185 191 187 190 194 197 200 199 199 195 203 210 208 209 206
135 130 207 253 258 186 155 159 148 154 197 177 182 257 271 222 225 208 213 202 182 180 184 183 181 177 177 182 186 191 194 193 195 192 190 196 196 193 197 210 216 206 208 210
135 121 109 344 344 22 106 145 149 130 127 159 181 253 308 312 273 216 199 193 175 169 172 167 166 177 184 188 191 195 197 198 194 185 185 191 196 199 207 216 215 208 210 214
126 120 165 193 211 192 192 179 161 137 155 191 214 236 278 280 264 244 201 188 165 161 165 168 175 185 189 191 192 194 197 194 187 183 188 196 204 207 212 213 211 213 213 215
106 140 185 211 209 182 189 198 183 187 186 190 219 222 245 238 226 212 185 159 148 155 169 181 183 183 183 185 188 190 191 186 183 183 194 205 207 205 206 206 209 213 217 225
73 128 111 2 232 197 221 219 197 199 189 199 209 241 247 233 168 184 195 167 170 181 185 187 182 174 179 184 184 182 185 183 177 186 199 202 201 203 208 209 206 210 218 220
91 116 110 232 294 70 251 235 203 190 187 179 205 231 221 171 190 200 202 187 183 180 179 179 179 176 183 184 175 180 185 172 171 185 194 196 199 209 214 208 203 213 217 215
140 115 123 138 100 205 239 245 178 176 214 203 202 209 190 181 170 127 204 180 163 160 160 171 164 160 151 144 155 153 151 155 166 178 193 194 193 206 209 204 213 219 221 223
153 138 123 129 169 258 286 261 189 189 256 225 190 180 140 126 79 8 2 113 147 149 148 143 138 141 130 139 143 125 126 135 153 178 193 195 192 198 207 216 221 218 217 230
74 102 118 131 157 220 244 281 284 122 264 236 178 174 158 132 151 235 186 105 102 102 109 111 109 105 106 115 115 112 114 120 137 173 200 188 186 193 207 216 216 211 207 226
50 53 115 154 198 254 273 301 38 158 241 234 185 181 169 178 188 162 115 97 104 100 98 97 94 98 108 119 114 112 113 130 147 120 132 122 135 173 182 185 193 195 201 214
154 139 159 141 180 250 315 18 170 229 283 113 162 170 137 124 114 106 99 96 92 85 83 93 99 92 75 88 107 106 110 144 113 110 116 104 108 132 128 120 127 146 169 194
180 185 177 184 213 265 290 253 265 204 126 90 141 137 129 122 117 110 99 91 83 84 78 86 105 90 74 79 105 119 139 92 110 120 137 124 95 92 132 143 157 177 185 208
296 106 123 177 295 314 326 343 27 71 94 90 121 126 123 117 114 105 96 83 73 66 66 74 89 82 63 59 71 85 59 112 125 135 151 134 101 40 106 137 185 206 225 231
235 145 115 226 282 347 360 4 33 61 72 82 94 108 122 120 116 114 108 95 81 75 63 69 88 81 53 50 46 38 59 93 102 112 119 99 133 267 308 298 255 231 243 233
220 187 175 214 222 195 246 311 27 81 89 101 102 92 97 114 119 115 111 102 89 72 70 76 78 75 55 49 34 24 43 87 101 82 47 42 320 315 310 310 328 321 268 279
Height
1481 1488 1494 1491 1490 1491 1494 1500 1504 1500 1493 1497 1500 1500 1499 1499 1502 1503 1505 1507 1508 1509 1512 1513 1515 1516 1518 1519 1521 1523 1524 1525 1527 1528 1530 1531 1533 1535 1536 1538 1539 1541 1542 1544
1486 1490 1484 1482 1485 1489 1493 1500 1502 1498 1494 1497 1501 1501 1498 1498 1498 1500 1502 1504 1506 1508 1510 1512 1514 1515 1517 1519 1520 1522 1524 1525 1527 1529 1531 1532 1534 1535 1537 1538 1540 1541 1542 1544
1486 1483 1479 1482 1486 1491 1494 1498 1499 1500 1498 1498 1502 1506 1501 1497 1498 1500 1501 1502 1503 1505 1507 1509 1512 1514 1516 1518 1520 1522 1523 1525 1527 1529 1531 1533 1534 1535 1537 1538 1539 1541 1542 1544
1481 1477 1478 1482 1486 1487 1497 1488 1491 1496 1506 1513 1508 1521 1504 1499 1498 1497 1497 1498 1500 1502 1505 1507 1510 1512 1514 1517 1519 1521 1523 1525 1526 1528 1530 1532 1533 1535 1536 1538 1539 1541 1542 1544
1479 1475 1478 1482 1482 1483 1489 1486 1491 1498 1506 1515 1512 1519 1511 1500 1499 1494 1492 1494 1495 1498 1502 1504 1507 1510 1513 1516 1518 1521 1523 1524 1526 1528 1529 1531 1533 1535 1536 1538 1539 1541 1542 1543
1474 1472 1473 1475 1476 1478 1483 1491 1498 1506 1514 1527 1516 1520 1515 1501 1493 1488 1487 1489 1491 1495 1498 1502 1505 1509 1512 1515 1517 1520 1521 1523 1525 1527 1529 1531 1532 1534 1536 1537 1538 1540 1541 1542
1479 1474 1471 1472 1479 1482 1485 1504 1524 1527 1534 1530 1515 1517 1510 1488 1483 1482 1482 1484 1487 1490 1494 1498 1502 1506 1509 1512 1515 1517 1520 1522 1524 1526 1528 1530 1532 1533 1535 1536 1538 1539 1540 1541
1489 1490 1474 1471 1476 1484 1488 1498 1521 1533 1536 1529 1517 1517 1498 1482 1480 1479 1479 1481 1484 1487 1491 1494 1498 1502 1506 1509 1512 1515 1517 1520 1522 1524 1526 1529 1530 1532 1534 1535 1537 1538 1539 1540
1488 1488 1471 1468 1469 1475 1489 1497 1497 1516 1524 1530 1523 1510 1492 1480 1479 1478 1479 1480 1482 1484 1488 1492 1495 1499 1503 1506 1509 1512 1515 1517 1520 1522 1525 1527 1529 1530 1532 1534 1535 1536 1538 1539
1474 1485 1474 1470 1470 1474 1479 1489 1504 1517 1531 1534 1522 1514 1504 1486 1482 1479 1479 1479 1480 1483 1486 1489 1493 1496 1500 1503 1507 1510 1513 1515 1518 1520 1523 1525 1527 1529 1530 1532 1533 1534 1536 1537
1469 1482 1480 1475 1477 1481 1485 1491 1499 1511 1514 1528 1531 1515 1484 1481 1478 1478 1477 1477 1479 1481 1484 1487 1490 1493 1497 1501 1504 1507 1510 1513 1515 1518 1520 1523 1524 1526 1528 1529 1530 1532 1533 1534
1470 1481 1490 1481 1472 1471 1475 1483 1494 1506 1515 1517 1520 1509 1474 1474 1473 1474 1475 1476 1478 1480 1482 1485 1488 1491 1495 1498 1501 1504 1507 1510 1513 1515 1518 1520 1522 1524 1525 1526 1528 1529 1530 1531
1469 1482 1495 1493 1487 1478 1478 1481 1486 1494 1508 1518 1518 1502 1473 1472 1472 1473 1474 1475 1477 1479 1481 1483 1486 1489 1492 1495 1498 1501 1504 1507 1510 1513 1515 1517 1519 1521 1522 1524 1525 1526 1527 1528
1463 1478 1487 1493 1488 1481 1481 1480 1484 1490 1504 1510 1504 1492 1479 1475 1473 1473 1474 1475 1476 1478 1479 1481 1483 1486 1489 1492 1496 1499 1502 1504 1507 1510 1512 1514 1516 1518 1519 1521 1522 1523 1524 1525
1462 1477 1476 1476 1473 1473 1474 1476 1478 1482 1486 1492 1488 1485 1477 1473 1471 1471 1472 1474 1476 1477 1478 1480 1482 1484 1487 1490 1493 1496 1499 1502 1504 1507 1509 1510 1513 1515 1516 1517 1519 1520 1521 1522
1466 1474 1475 1476 1472 1471 1473 1472 1474 1475 1477 1479 1479 1478 1469 1468 1470 1471 1472 1473 1474 1475 1477 1479 1481 1483 1485 1488 1491 1494 1497 1499 1502 1504 1506 1508 1510 1511 1513 1514 1515 1516 1517 1518
1471 1475 1481 1485 1477 1474 1481 1472 1471 1472 1471 1473 1477 1472 1468 1469 1469 1470 1470 1472 1473 1474 1476 1478 1479 1481 1484 1487 1489 1492 1494 1497 1499 1501 1503 1505 1506 1508 1509 1511 1511 1512 1513 1514
1469 1477 1485 1488 1483 1491 1476 1464 1464 1467 1467 1467 1466 1466 1466 1467 1468 1469 1470 1471 1472 1473 1475 1477 1479 1481 1483 1486 1488 1490 1493 1495 1497 1498 1500 1501 1503 1504 1506 1506 1507 1508 1509 1509
1462 1472 1485 1492 1491 1484 1470 1463 1463 1467 1468 1465 1465 1465 1466 1467 1468 1470 1470 1471 1472 1473 1475 1476 1478 1481 1482 1485 1487 1488 1491 1493 1495 1496 1497 1499 1500 1501 1502 1502 1503 1504 1505 1505
1464 1468 1480 1489 1489 1489 1472 1460 1458 1462 1470 1462 1462 1463 1465 1466 1472 1472 1471 1471 1472 1473 1475 1476 1478 1479 1481 1484 1485 1487 1488 1490 1492 1493 1495 1496 1497 1497 1498 1499 1499 1500 1501 1501
1472 1476 1481 1486 1486 1478 1465 1460 1459 1473 1469 1460 1460 1461 1462 1464 1466 1468 1469 1471 1472 1473 1474 1476 1478 1479 1481 1483 1484 1485 1487 1488 1489 1491 1493 1493 1494 1495 1495 1496 1496 1497 1497 1497
1475 1479 1482 1485 1485 1480 1463 1461 1464 1464 1459 1458 1459 1460 1460 1462 1464 1466 1468 1470 1472 1473 1475 1477 1478 1479 1481 1483 1484 1484 1485 1487 1489 1490 1491 1492 1492 1493 1493 1493 1493 1494 1494 1494
1472 1472 1474 1476 1476 1466 1462 1461 1460 1459 1459 1459 1459 1460 1461 1462 1463 1466 1469 1471 1473 1474 1476 1478 1478 1479 1481 1482 1483 1484 1485 1486 1487 1488 1490 1490 1490 1490 1491 1491 1490 1491 1491 1491
1469 1468 1470 1471 1467 1464 1462 1460 1459 1459 1459 1460 1460 1461 1462 1463 1465 1468 1470 1473 1474 1476 1477 1478 1479 1479 1480 1481 1483 1484 1485 1486 1486 1486 1487 1487 1487 1489 1489 1488 1488 1488 1488 1487
1469 1468 1469 1470 1466 1464 1462 1462 1460 1459 1460 1460 1461 1462 1463 1464 1467 1469 1471 1474 1476 1477 1477 1478 1478 1478 1479 1480 1482 1483 1484 1484 1484 1485 1485 1485 1486 1486 1486 1486 1486 1485 1485 1485
1466 1466 1468 1467 1464 1464 1463 1463 1462 1461 1461 1461 1462 1464 1466 1467 1468 1470 1473 1475 1477 1478 1479 1478 1478 1478 1478 1479 1480 1481 1482 1482 1482 1482 1482 1483 1484 1484 1483 1483 1483 1483 1483 1483